FW4572 Weather Reports


time (UTC)temp
C
wind
direction
speed
KPH
gust
KPH
rain 1hr
cm
rain 24hr
cm
rain mn
cm
humidity
%
barometer
mb
20260504110434 13 205 12.9 19.3 0.00 0.00 0.00 64 1016.7
20260504100519 12 205 9.7 12.9 0.00 0.00 0.00 64 1016.6
20260504100418 12 206 8.0 9.7 0.00 0.00 0.00 63 1016.6
20260504081619 13 270 4.8 8.0 0.00 0.00 0.00 61 1016.9
20260504081517 13 215 6.4 8.0 0.00 0.00 0.00 61 1016.9
20260504080518 13 239 3.2 11.3 0.00 0.00 0.00 61 1017.0
20260504050718 13 204 4.8 8.0 0.00 0.00 0.00 57 1018.2
20260504045726 13 195 4.8 8.0 0.00 0.00 0.00 56 1018.3
20260504044725 13 196 6.4 11.3 0.00 0.00 0.00 57 1018.0
20260504043728 13 206 3.2 6.4 0.00 0.00 0.00 56 1018.2
20260504043626 13 206 4.8 8.0 0.00 0.00 0.00 56 1018.2
20260504040626 14 218 3.2 4.8 0.00 0.00 0.00 54 1018.4
20260504034625 14 195 6.4 12.9 0.00 0.00 0.00 53 1018.4
20260504033626 14 203 4.8 6.4 0.00 0.00 0.00 51 1018.6
20260504032725 14 231 3.2 8.0 0.00 0.00 0.00 51 1018.7
20260504031744 14 210 4.8 6.4 0.00 0.00 0.00 51 1018.6
20260504030725 14 215 4.8 6.4 0.00 0.00 0.00 49 1018.9
20260504025726 15 177 3.2 6.4 0.00 0.00 0.00 49 1018.8
20260504025642 15 216 4.8 9.7 0.00 0.00 0.00 50 1018.7
20260504024725 15 219 6.4 9.7 0.00 0.00 0.00 49 1018.8
20260504023725 15 238 3.2 6.4 0.00 0.00 0.00 48 1018.8
20260504022742 15 215 3.2 11.3 0.00 0.00 0.00 48 1018.7
20260504021724 15 237 1.6 6.4 0.00 0.00 0.00 49 1018.7
20260504015725 15 226 3.2 4.8 0.00 0.00 0.00 47 1018.4
20260504014727 15 202 0.0 1.6 0.00 0.00 0.00 44 1018.7
20260504013825 16 225 3.2 4.8 0.00 0.00 0.00 45 1018.2
20260504012825 16 205 3.2 4.8 0.00 0.00 0.00 43 1018.2
20260504011825 16 222 1.6 3.2 0.00 0.00 0.00 43 1018.2
20260504010824 15 214 3.2 4.8 0.00 0.00 0.00 45 1018.2
20260504003824 16 225 0.0 0.0 0.00 0.00 0.00 45 1018.2
20260504003726 16 225 0.0 0.0 0.00 0.00 0.00 45 1018.3
20260504002743 17 225 0.0 0.0 0.00 0.00 0.00 41 1018.3
20260504001827 17 225 0.0 3.2 0.00 0.00 0.00 40 1018.3
20260504000841 17 247 0.0 0.0 0.00 0.00 0.00 39 1018.4
20260503235926 18 222 1.6 3.2 0.00 0.00 0.00 38 1018.3
20260503233924 18 202 3.2 6.4 0.00 0.00 0.00 38 1018.2
20260503232926 18 217 1.6 4.8 0.00 0.00 0.00 36 1018.2
20260503231026 19 233 4.8 9.7 0.00 0.00 0.00 37 1018.4
20260503230125 19 195 4.8 8.0 0.00 0.00 0.00 36 1018.6
20260503225125 19 179 6.4 8.0 0.00 0.00 0.00 33 1018.6
20260503224127 20 203 8.0 11.3 0.00 0.00 0.00 34 1018.9
20260503222224 20 221 3.2 8.0 0.00 0.00 0.00 36 1019.1
20260503221224 20 210 6.4 11.3 0.00 0.00 0.00 36 1019.2
20260503215324 20 205 9.7 16.1 0.00 0.00 0.00 35 1019.2
20260503213325 20 221 4.8 8.0 0.00 0.00 0.00 36 1019.4
20260503212326 19 217 4.8 8.0 0.00 0.00 0.00 37 1019.5
20260503211423 20 198 8.0 16.1 0.00 0.00 0.00 36 1019.6
20260503210425 20 278 0.0 3.2 0.00 0.00 0.00 37 1019.9
20260503205425 20 204 3.2 6.4 0.00 0.00 0.00 36 1020.0
20260503204524 20 161 1.6 3.2 0.00 0.00 0.00 36 1020.1
20260503203525 20 246 3.2 11.3 0.00 0.00 0.00 37 1020.5
20260503201526 19 194 8.0 9.7 0.00 0.00 0.00 36 1020.7
20260503200525 18 3 1.6 3.2 0.00 0.00 0.00 38 1020.9
20260503192524 18 198 8.0 16.1 0.00 0.00 0.00 38 1021.6
20260503191526 19 187 9.7 16.1 0.00 0.00 0.00 37 1021.7
20260503190525 18 166 1.6 6.4 0.00 0.00 0.00 39 1022.0
20260503185525 18 220 3.2 11.3 0.00 0.00 0.00 38 1022.0
20260503184540 17 182 3.2 4.8 0.00 0.00 0.00 38 1022.1
20260503183626 18 202 4.8 8.0 0.00 0.00 0.00 39 1022.2
20260503182625 18 213 8.0 14.5 0.00 0.00 0.00 39 1022.3
20260503180724 18 359 1.6 3.2 0.00 0.00 0.00 38 1022.7
20260503175724 17 247 0.0 0.0 0.00 0.00 0.00 37 1022.6
20260503174725 17 304 3.2 8.0 0.00 0.00 0.00 38 1022.9
20260503173726 16 202 1.6 4.8 0.00 0.00 0.00 37 1023.1
20260503172824 16 212 1.6 6.4 0.00 0.00 0.00 39 1023.2
20260503150825 13 261 1.6 6.4 0.00 0.00 0.00 48 1024.2
20260503120124 4 180 0.0 0.0 0.00 0.00 0.00 96 1023.2